Wind_Speed
21 25 29 33 40 42 42 44 48 52 56 62 65 65 61 57 58 61 62 73 78 77 73 72 73 69 68 64 56 53 47 56 44 39 40 44 46 44 42 41 39 36 33 30 31 34 38 39 40 41 42 43 45 47
22 23 27 33 38 42 41 43 49 54 56 57 62 62 58 57 55 52 53 57 64 65 71 70 69 69 61 52 44 46 49 50 47 43 45 45 48 44 43 41 41 39 36 33 32 34 37 38 39 42 42 45 48 48
26 30 35 39 42 44 43 46 49 50 52 58 60 59 61 57 51 48 47 46 46 47 31 44 44 51 39 36 43 49 45 46 41 41 45 46 46 46 44 42 41 41 40 37 36 38 38 37 41 42 46 49 51 53
28 31 35 39 42 43 45 47 48 51 52 59 63 68 64 62 60 49 47 39 35 46 40 41 26 31 33 40 29 46 44 44 44 43 47 48 49 47 46 42 42 42 42 41 43 42 40 41 43 47 50 53 53 57
33 35 37 37 37 40 42 45 50 55 61 70 74 74 73 70 67 59 41 29 16 33 42 27 32 36 39 48 55 56 47 46 49 50 48 47 48 49 48 45 45 43 42 46 43 44 42 43 46 49 52 55 56 60
37 37 38 42 46 49 50 53 61 68 74 75 76 77 74 73 78 63 42 43 43 40 46 40 38 47 50 51 48 47 44 42 48 46 43 46 49 51 49 47 45 46 49 49 46 45 47 49 51 55 57 59 61 62
40 41 42 43 45 50 55 62 65 68 70 73 73 71 66 68 70 85 68 66 51 47 46 44 48 52 51 48 46 45 47 47 44 46 45 47 50 52 50 47 47 48 52 52 53 52 53 54 58 60 60 62 64 66
44 45 43 45 47 50 55 59 64 68 71 74 77 77 74 76 75 73 67 54 42 49 52 54 52 53 49 50 51 47 45 46 44 44 47 50 53 54 51 48 51 52 53 54 58 59 59 60 63 65 66 66 70 74
44 45 46 45 46 52 57 57 60 63 64 66 75 84 92 92 77 87 72 60 62 60 57 57 55 55 54 56 52 50 49 47 46 45 46 51 52 54 51 54 58 57 56 57 61 64 65 65 65 68 71 74 77 81
40 42 47 47 46 47 47 47 51 55 58 63 69 66 64 64 82 89 86 76 60 55 55 56 53 52 55 54 50 51 51 49 48 46 48 50 50 52 54 58 61 62 60 62 65 67 69 70 71 74 76 79 82 86
35 34 39 42 42 43 45 45 44 44 50 55 55 56 57 63 64 67 60 54 59 58 55 56 57 56 52 52 50 51 51 51 50 48 48 47 49 53 54 58 61 62 65 67 70 72 73 74 76 78 78 80 82 85
31 32 34 35 37 38 41 43 44 46 44 44 52 58 66 66 61 54 52 52 55 58 54 55 56 56 53 49 49 47 49 51 52 50 48 41 47 55 58 61 63 66 66 68 68 68 68 70 73 76 80 82 84 87
25 26 28 29 30 30 31 33 38 43 46 50 57 63 64 62 59 50 43 45 47 54 57 56 54 54 54 55 54 54 54 54 53 50 48 44 50 55 59 63 65 67 70 70 69 71 73 75 78 82 84 88 91 95
25 24 23 22 25 27 31 33 34 37 39 44 48 52 56 49 54 58 54 51 47 51 54 55 53 53 55 57 59 59 60 57 55 56 54 55 59 61 63 64 66 68 71 73 75 77 78 82 86 88 91 93 92 93
20 20 21 20 20 24 27 28 32 37 40 42 45 48 51 52 51 54 56 56 49 47 48 49 51 53 55 57 57 58 60 60 56 54 59 62 64 66 66 68 71 73 75 78 80 81 84 86 87 88 90 91 93 95
16 16 19 19 19 19 21 24 28 32 34 36 40 43 45 46 47 48 49 50 52 52 51 52 54 55 58 59 60 59 61 60 61 62 64 66 68 70 71 72 73 75 76 78 80 83 84 86 89 91 93 95 98 100
20 20 21 22 23 23 22 24 28 32 33 36 39 43 45 48 49 51 51 52 54 55 55 56 57 58 61 64 64 64 64 65 67 67 68 68 68 70 72 74 77 80 81 83 86 87 89 91 93 95 97 99 103 106
25 24 25 26 27 29 29 29 31 33 35 37 39 42 46 47 48 50 52 51 52 54 58 61 62 62 62 63 64 66 67 67 68 71 73 76 78 79 80 81 83 86 86 87 90 92 93 96 99 101 103 105 107 109
29 29 30 29 30 33 34 35 36 38 40 41 41 43 47 49 50 52 54 57 59 60 60 60 61 62 64 66 68 69 71 73 74 76 79 80 82 83 85 86 87 89 92 94 96 98 99 101 104 106 107 107 107 107
33 34 34 34 33 36 38 38 39 41 44 46 48 48 49 50 49 48 50 53 56 59 61 63 66 67 68 68 68 69 71 74 77 80 82 84 86 87 89 91 93 95 97 99 100 102 103 104 104 105 105 106 106 106
42 44 42 41 39 38 39 40 40 40 42 45 46 49 53 56 56 57 58 57 57 59 62 65 68 71 73 75 76 77 78 78 80 82 84 86 88 90 92 94 95 97 99 100 101 101 101 102 104 104 105 105 104 104
43 44 46 47 45 45 45 44 45 46 47 47 49 50 51 53 55 55 54 57 59 61 62 64 66 69 71 72 74 74 75 77 79 81 83 85 88 90 92 93 96 98 99 100 101 102 102 101 102 104 104 102 102 101
49 49 52 53 55 55 55 53 53 53 54 54 56 57 57 57 57 57 59 60 60 60 62 64 67 69 71 72 74 76 77 79 82 84 86 88 90 91 93 94 95 97 98 98 99 100 101 100 99 98 98 95 93 91
57 58 57 58 60 62 61 61 62 61 60 61 60 60 62 62 63 62 63 63 65 66 66 67 68 70 72 73 75 76 77 78 80 82 83 85 87 89 90 91 92 93 95 96 97 97 97 96 95 93 90 86 83 80
60 62 61 64 65 63 64 65 66 64 64 64 65 66 66 65 66 68 68 68 69 68 68 68 70 71 73 74 75 77 78 79 81 83 84 85 88 89 90 90 90 91 92 92 91 89 89 88 86 83 81 78 77 77
59 62 63 64 63 65 68 67 66 66 68 68 66 68 71 71 71 72 72 72 72 72 73 73 72 72 72 73 74 75 78 80 82 83 83 84 85 86 87 87 86 83 84 85 85 83 81 80 78 77 77 75 74 73
45 47 49 50 52 53 55 55 56 58 59 62 63 66 68 69 71 71 71 71 71 71 71 71 71 72 71 72 73 74 75 77 79 79 79 81 81 81 80 80 80 80 80 79 77 76 75 75 75 73 72 71 69 68
44 44 46 45 46 45 45 46 48 50 51 53 54 57 58 58 60 62 63 64 64 64 65 66 67 67 68 68 69 71 72 74 74 75 75 75 75 73 72 72 72 72 72 72 72 72 71 70 69 67 66 66 65 64
40 39 39 39 40 42 43 44 45 46 48 49 50 51 52 53 54 56 56 57 57 58 59 60 61 62 63 64 65 66 67 67 66 65 64 65 68 68 67 67 67 67 66 66 66 65 64 64 64 64 64 63 62 60
35 35 37 39 39 40 40 41 41 43 45 46 47 47 48 49 50 50 51 51 52 53 54 54 54 55 56 57 57 58 59 60 60 60 60 60 61 62 62 62 62 61 61 60 61 60 60 60 60 58 58 58 58 57
36 37 36 35 35 35 35 36 38 38 38 39 39 39 40 40 41 43 44 45 46 47 48 48 50 50 51 52 54 54 53 54 54 55 55 56 56 56 57 57 57 57 58 58 57 57 56 56 55 54 53 52 52 51
32 31 31 31 32 32 33 33 32 33 34 32 34 36 38 38 38 40 40 40 40 41 43 44 44 45 46 47 48 49 50 51 51 51 52 51 52 52 53 54 54 54 54 54 53 52 51 51 50 50 49 48 47 46
27 28 28 29 30 30 30 31 31 31 30 31 31 31 33 35 35 35 35 36 37 37 38 40 41 42 43 44 44 45 46 47 48 49 50 51 50 49 49 49 49 48 48 49 49 48 47 47 46 46 46 45 44 43
Wind_Direction
184 186 186 186 188 186 184 186 189 190 190 190 190 192 192 193 196 203 210 217 221 225 228 232 235 239 242 242 244 249 236 244 248 242 235 232 237 235 237 237 240 245 247 252 251 249 249 250 258 263 267 271 272 275
154 162 169 172 175 176 177 179 183 184 185 182 182 183 177 175 182 189 201 209 216 221 230 237 241 242 240 236 231 230 230 232 231 231 230 232 235 235 238 239 241 245 245 248 251 253 255 258 262 267 271 272 273 277
135 146 152 155 158 163 169 173 174 175 176 174 172 166 166 166 168 181 191 193 201 210 218 231 231 228 221 212 216 222 226 229 233 236 234 234 236 236 240 240 243 244 247 248 252 252 258 263 266 269 269 272 276 280
125 136 144 150 155 162 165 166 167 166 164 161 157 160 158 163 167 168 168 155 156 161 182 220 211 220 196 202 191 242 229 229 228 228 231 231 235 238 239 240 242 245 248 252 254 259 259 262 265 266 269 273 277 280
112 121 130 136 142 147 152 155 155 154 152 154 157 156 161 161 160 152 131 123 194 198 199 212 212 208 195 199 206 219 223 229 227 224 227 232 236 239 243 244 243 247 249 253 257 262 266 266 267 269 272 274 276 278
109 115 123 130 135 139 144 147 149 153 155 157 156 157 159 160 157 138 132 182 212 190 195 211 213 200 201 207 216 224 224 229 235 232 232 236 238 241 245 248 249 250 253 254 257 262 267 269 271 272 273 275 278 282
109 116 123 130 136 140 145 150 150 152 155 155 152 155 155 156 168 158 167 172 176 177 191 203 199 198 203 209 218 222 227 231 237 238 235 236 240 244 247 251 253 254 256 259 262 262 264 268 271 273 275 278 281 282
104 107 113 122 129 135 140 143 147 151 153 153 153 151 145 152 156 163 164 171 179 180 190 192 197 198 206 213 220 224 228 234 236 237 236 236 239 245 248 252 255 257 259 262 265 267 268 269 272 275 279 279 279 281
105 110 113 117 126 133 137 141 145 148 152 158 159 154 156 157 180 181 180 184 199 189 192 193 199 204 211 217 221 224 228 234 236 241 242 241 242 246 250 252 255 258 261 264 267 270 272 274 275 275 276 278 281 283
111 115 120 125 128 131 136 142 147 151 157 160 163 169 174 180 181 183 186 186 186 187 194 199 203 211 215 218 222 227 232 236 238 242 244 245 247 251 253 255 258 261 262 263 266 269 272 275 277 279 282 284 286 289
115 120 125 130 134 136 139 143 147 153 157 161 164 167 175 176 178 178 180 183 190 195 197 203 211 215 218 222 226 231 235 238 242 245 250 250 253 255 257 259 262 263 264 265 268 272 275 278 280 283 284 285 286 288
115 119 123 132 138 142 146 150 153 157 160 163 169 175 177 179 179 180 181 186 193 199 205 208 212 216 219 222 229 235 239 240 243 245 250 253 257 258 260 262 263 265 268 271 273 277 279 280 282 284 286 288 290 291
107 117 126 130 134 139 146 152 159 164 169 172 173 176 180 188 188 184 185 193 199 204 209 211 214 221 225 229 234 239 240 242 245 246 250 253 257 261 261 263 267 270 272 275 278 279 280 282 284 286 288 289 291 293
112 113 122 135 144 150 154 162 168 173 177 178 181 185 189 193 194 196 202 207 208 210 212 215 221 227 231 234 237 242 246 249 253 255 253 252 256 259 263 267 270 272 274 277 278 280 282 284 286 287 288 290 292 294
128 130 132 134 147 161 168 174 179 182 185 188 190 190 194 198 202 206 212 215 218 220 224 228 233 237 240 242 245 249 251 252 252 252 255 258 259 261 265 267 270 273 275 278 280 282 283 283 285 287 289 292 292 293
155 156 153 156 160 163 171 177 185 189 192 196 200 202 206 207 210 214 216 221 224 227 233 237 241 244 247 250 251 255 256 253 252 255 258 261 264 266 269 272 274 275 276 277 279 280 282 285 287 288 289 291 293 294
190 191 191 187 181 182 190 194 198 201 201 204 206 208 210 214 218 222 226 230 233 237 241 244 247 251 253 255 256 258 259 255 254 256 260 263 266 269 271 272 273 275 277 279 281 283 284 285 286 288 290 291 291 293
209 210 211 209 206 206 210 212 212 215 218 220 220 221 225 228 231 234 235 237 241 246 249 251 255 258 259 260 259 259 259 259 259 259 261 264 266 268 270 272 274 277 279 280 281 282 284 286 287 287 289 291 292 294
222 223 222 221 220 220 222 224 227 227 226 229 232 234 235 238 238 238 239 241 242 243 245 249 251 254 256 258 259 260 261 262 262 262 263 265 267 269 270 272 274 275 277 279 281 283 285 286 287 289 291 292 294 295
235 232 231 234 239 237 234 233 233 233 231 232 234 236 239 241 242 245 249 251 251 251 251 252 252 254 257 259 260 262 262 263 263 264 265 267 268 269 271 273 275 276 278 279 281 283 285 287 289 290 292 294 295 296
245 245 245 243 242 243 240 240 243 242 240 239 238 240 242 245 247 250 249 249 252 254 255 256 257 258 259 261 263 263 264 264 264 265 266 268 270 272 274 275 277 279 280 282 283 285 287 289 291 293 294 295 297 299
247 244 246 244 246 246 247 249 249 248 246 246 247 247 247 247 248 250 252 254 255 256 257 258 260 261 262 264 265 267 268 269 270 271 272 272 273 274 276 277 279 281 284 285 287 289 290 291 292 293 295 297 298 300
243 243 243 244 247 250 251 251 252 256 258 256 253 253 253 256 257 258 259 259 259 258 259 260 260 262 263 264 266 267 269 270 272 273 274 275 276 278 280 281 282 283 285 287 288 289 290 292 294 294 295 298 299 299
247 246 247 247 247 249 252 254 257 258 257 258 260 261 261 261 262 262 262 262 263 264 265 267 267 267 268 268 269 270 271 272 274 276 278 279 280 282 282 283 285 286 286 288 289 290 291 293 295 297 298 299 300 300
253 255 256 256 255 255 257 259 261 262 261 262 263 264 266 268 268 267 266 267 268 269 270 273 273 272 272 272 273 272 273 275 278 282 283 284 284 284 284 286 286 287 288 289 292 293 294 295 296 298 299 300 301 301
264 263 263 264 263 261 262 264 266 266 267 266 268 268 267 268 270 271 271 271 272 273 274 276 276 276 277 277 277 278 278 279 281 284 284 285 285 285 285 287 289 290 292 292 293 294 295 297 298 298 299 300 301 301
270 269 268 269 266 265 265 265 266 268 268 267 267 267 267 266 266 267 269 270 271 272 272 273 275 275 276 278 280 281 282 282 283 283 284 285 285 287 288 289 290 291 292 293 295 295 296 297 297 298 299 300 300 300
263 261 261 262 263 265 267 266 265 263 263 263 263 263 264 265 266 267 267 269 270 272 274 275 276 277 278 279 281 282 282 282 284 285 286 287 288 288 290 290 291 292 293 293 293 294 295 296 297 298 299 300 301 302
265 266 267 266 265 262 262 263 264 265 266 268 270 271 272 273 273 273 274 275 276 276 276 276 277 279 280 281 282 282 283 283 285 286 287 288 289 289 290 290 290 291 292 293 294 295 297 298 299 299 300 300 301 301
271 269 266 265 266 267 268 268 268 268 268 269 270 272 273 274 275 276 276 277 277 277 278 279 280 281 282 283 283 284 285 285 286 287 287 288 288 289 291 292 294 295 295 296 297 298 298 298 298 298 298 299 299 300
266 267 270 271 273 274 274 274 274 274 274 275 275 275 273 273 275 275 275 276 277 279 281 281 282 283 282 283 284 285 286 286 288 289 290 291 292 293 295 295 296 297 297 297 297 298 298 299 299 300 300 300 300 302
274 276 277 278 277 276 277 277 278 278 278 276 277 278 278 277 277 276 278 280 280 281 283 283 284 285 286 287 288 289 291 293 294 294 294 294 295 295 295 296 297 297 297 298 299 299 299 300 301 301 302 302 302 303
275 275 276 276 277 278 279 280 281 280 281 282 282 281 281 281 282 283 285 285 286 286 288 289 290 291 292 293 293 294 295 295 296 296 297 297 297 297 297 298 299 300 301 301 302 303 303 304 304 304 304 304 305 305
Height
10022 10029 10038 10048 10060 10073 10087 10099 10112 10127 10144 10162 10182 10205 10228 10255 10281 10301 10327 10346 10366 10382 10393 10407 10414 10423 10431 10448 10465 10474 10471 10475 10480 10484 10491 10495 10500 10505 10509 10513 10516 10518 10519 10520 10520 10522 10524 10525 10523 10525 10525 10525 10522 10520
10026 10033 10041 10050 10061 10075 10087 10099 10111 10126 10143 10163 10183 10205 10231 10257 10279 10302 10323 10342 10358 10376 10390 10397 10408 10412 10424 10442 10453 10458 10463 10466 10467 10473 10481 10486 10490 10496 10499 10503 10507 10509 10510 10511 10513 10513 10514 10515 10516 10515 10516 10512 10510 10509
10034 10039 10044 10053 10065 10077 10090 10102 10115 10130 10147 10166 10188 10212 10237 10260 10285 10307 10321 10339 10356 10371 10383 10390 10400 10404 10420 10432 10441 10445 10453 10458 10463 10470 10474 10477 10484 10487 10491 10495 10499 10499 10500 10502 10503 10503 10505 10508 10506 10507 10504 10499 10498 10497
10046 10050 10056 10064 10074 10084 10095 10106 10120 10135 10153 10173 10196 10217 10240 10263 10282 10306 10324 10340 10357 10371 10379 10388 10392 10399 10413 10427 10441 10438 10446 10450 10454 10459 10463 10468 10474 10478 10480 10486 10488 10489 10491 10492 10489 10492 10497 10497 10496 10494 10490 10487 10488 10482
10060 10061 10066 10075 10085 10094 10105 10116 10130 10146 10163 10181 10198 10219 10237 10260 10283 10305 10318 10331 10346 10360 10373 10380 10387 10395 10409 10420 10426 10430 10437 10442 10444 10447 10454 10461 10465 10468 10470 10477 10477 10481 10481 10478 10481 10480 10486 10485 10483 10481 10479 10476 10476 10469
10077 10081 10084 10088 10094 10103 10116 10128 10138 10151 10168 10185 10204 10221 10241 10262 10280 10291 10322 10338 10342 10357 10364 10372 10383 10390 10401 10412 10417 10422 10431 10435 10437 10445 10450 10454 10456 10458 10461 10465 10469 10470 10468 10468 10470 10472 10471 10470 10469 10465 10464 10461 10458 10454
10096 10098 10102 10106 10112 10118 10127 10139 10149 10164 10179 10197 10215 10235 10253 10274 10282 10288 10314 10330 10338 10348 10359 10370 10378 10386 10396 10405 10412 10418 10423 10429 10433 10437 10442 10444 10446 10447 10452 10456 10457 10458 10455 10456 10456 10460 10459 10458 10452 10450 10449 10446 10441 10436
10114 10117 10121 10126 10132 10137 10146 10156 10167 10179 10193 10209 10226 10242 10264 10288 10298 10303 10314 10322 10333 10342 10350 10360 10375 10383 10391 10398 10403 10411 10417 10419 10424 10426 10429 10432 10435 10438 10443 10446 10443 10444 10444 10444 10440 10441 10444 10444 10439 10436 10433 10428 10423 10418
10136 10138 10141 10148 10153 10159 10167 10177 10186 10196 10210 10224 10236 10249 10263 10271 10286 10292 10304 10317 10323 10335 10348 10359 10370 10379 10385 10392 10397 10401 10406 10408 10413 10415 10419 10421 10426 10429 10435 10432 10427 10432 10433 10432 10427 10424 10424 10425 10424 10420 10416 10411 10406 10400
10158 10159 10163 10167 10173 10181 10188 10196 10205 10216 10227 10236 10245 10257 10264 10273 10281 10293 10302 10309 10326 10338 10348 10358 10366 10373 10379 10383 10389 10393 10397 10399 10403 10406 10407 10411 10417 10419 10421 10418 10414 10415 10420 10418 10413 10410 10407 10406 10404 10400 10397 10392 10387 10380
10175 10178 10181 10185 10190 10196 10203 10211 10221 10230 10238 10248 10259 10270 10276 10284 10294 10303 10312 10322 10331 10340 10347 10355 10362 10368 10373 10377 10380 10383 10386 10390 10392 10397 10397 10403 10406 10405 10405 10400 10399 10401 10400 10399 10398 10395 10394 10391 10388 10384 10378 10372 10366 10360
10186 10191 10195 10200 10204 10210 10216 10223 10231 10239 10249 10259 10267 10274 10281 10288 10297 10307 10317 10325 10332 10339 10344 10349 10355 10360 10365 10368 10371 10374 10376 10379 10380 10385 10386 10395 10393 10386 10386 10385 10385 10383 10383 10381 10380 10380 10378 10374 10369 10363 10357 10351 10345 10339
10200 10203 10206 10211 10217 10222 10229 10234 10240 10245 10253 10260 10268 10273 10282 10291 10300 10309 10315 10321 10326 10331 10336 10343 10349 10352 10356 10359 10361 10361 10364 10365 10368 10373 10377 10379 10373 10370 10368 10367 10369 10368 10363 10362 10364 10360 10358 10355 10349 10343 10336 10329 10323 10315
10211 10214 10218 10222 10225 10230 10236 10241 10247 10254 10262 10269 10276 10282 10288 10295 10303 10308 10311 10315 10322 10327 10332 10336 10341 10343 10345 10347 10349 10351 10352 10355 10357 10361 10364 10358 10355 10354 10353 10353 10352 10350 10346 10345 10342 10340 10338 10332 10325 10320 10314 10306 10298 10290
10220 10223 10226 10230 10234 10238 10243 10249 10254 10260 10265 10272 10277 10284 10290 10296 10300 10305 10309 10313 10318 10321 10324 10327 10329 10331 10333 10335 10337 10337 10338 10341 10345 10345 10341 10339 10338 10339 10340 10338 10336 10334 10331 10327 10324 10321 10314 10308 10302 10296 10290 10283 10275 10267
10227 10231 10233 10236 10240 10244 10249 10253 10257 10262 10267 10273 10278 10283 10287 10292 10296 10300 10303 10306 10309 10311 10313 10315 10318 10320 10321 10322 10323 10324 10325 10328 10329 10326 10326 10326 10325 10324 10323 10322 10318 10314 10310 10306 10302 10297 10293 10287 10281 10273 10266 10260 10252 10244
10231 10233 10237 10240 10244 10248 10251 10254 10258 10262 10268 10272 10276 10280 10283 10285 10289 10292 10295 10297 10299 10301 10304 10305 10306 10306 10306 10306 10308 10309 10311 10313 10313 10313 10312 10312 10310 10308 10305 10302 10296 10292 10289 10285 10280 10275 10270 10264 10258 10250 10245 10238 10226 10217
10229 10232 10235 10239 10243 10246 10250 10253 10256 10259 10262 10266 10270 10273 10275 10278 10281 10283 10285 10286 10288 10290 10291 10291 10290 10290 10291 10292 10293 10292 10293 10294 10294 10295 10294 10293 10290 10287 10285 10280 10276 10271 10267 10262 10257 10251 10247 10241 10233 10227 10218 10212 10204 10193
10224 10228 10231 10234 10238 10241 10244 10247 10250 10252 10254 10257 10259 10261 10264 10266 10268 10271 10272 10273 10275 10276 10276 10276 10275 10274 10274 10273 10273 10274 10275 10275 10274 10273 10272 10271 10268 10265 10262 10259 10255 10250 10245 10239 10233 10229 10223 10215 10207 10200 10191 10182 10175 10168
10218 10220 10223 10226 10229 10232 10235 10237 10240 10243 10245 10247 10249 10250 10251 10252 10254 10254 10255 10256 10257 10258 10258 10258 10257 10256 10256 10255 10255 10254 10254 10253 10252 10250 10248 10246 10243 10241 10238 10234 10230 10225 10220 10215 10209 10203 10196 10189 10181 10173 10165 10154 10146 10139
10209 10211 10213 10216 10219 10220 10223 10225 10228 10229 10232 10234 10235 10236 10238 10239 10240 10240 10241 10242 10241 10241 10240 10240 10239 10238 10237 10236 10234 10233 10231 10231 10228 10227 10224 10222 10220 10217 10214 10210 10205 10200 10193 10187 10182 10177 10171 10161 10152 10144 10134 10124 10118 10110
10196 10199 10201 10204 10205 10209 10210 10212 10214 10215 10217 10219 10221 10223 10223 10224 10224 10224 10226 10225 10225 10224 10224 10223 10222 10221 10220 10218 10216 10214 10213 10211 10209 10206 10202 10199 10196 10192 10187 10183 10178 10172 10166 10159 10151 10145 10140 10133 10126 10118 10107 10099 10092 10083
10183 10185 10187 10190 10192 10195 10195 10198 10199 10200 10200 10202 10203 10204 10206 10207 10206 10207 10207 10207 10206 10206 10206 10204 10202 10201 10200 10198 10196 10194 10192 10189 10186 10183 10179 10175 10171 10168 10162 10156 10151 10145 10139 10133 10125 10117 10110 10103 10097 10090 10082 10075 10068 10059
10168 10170 10172 10174 10176 10176 10179 10179 10182 10182 10183 10184 10183 10184 10185 10186 10186 10186 10186 10186 10186 10185 10185 10183 10181 10179 10178 10176 10174 10172 10169 10165 10162 10159 10155 10151 10147 10142 10137 10131 10125 10118 10112 10106 10099 10091 10084 10077 10069 10062 10055 10047 10040 10032
10154 10155 10157 10158 10158 10160 10160 10161 10161 10162 10163 10164 10165 10165 10165 10165 10165 10165 10164 10164 10164 10163 10162 10162 10160 10158 10156 10154 10152 10149 10145 10142 10139 10136 10131 10126 10121 10115 10110 10104 10098 10093 10086 10078 10073 10066 10060 10052 10045 10037 10030 10023 10016 10008
10136 10136 10137 10138 10138 10139 10141 10143 10143 10143 10144 10146 10146 10147 10147 10146 10145 10143 10142 10142 10141 10140 10139 10137 10136 10135 10133 10131 10128 10125 10121 10118 10114 10111 10106 10101 10095 10090 10084 10078 10070 10066 10060 10054 10048 10041 10034 10028 10021 10014 10007 10000 9994 9987
10120 10120 10120 10121 10122 10122 10122 10123 10124 10124 10125 10125 10124 10124 10124 10123 10123 10122 10120 10119 10118 10117 10116 10115 10112 10111 10108 10106 10103 10100 10097 10093 10089 10086 10082 10076 10071 10065 10060 10056 10049 10042 10035 10029 10024 10017 10012 10005 9999 9993 9986 9980 9974 9967
10104 10104 10104 10105 10105 10107 10108 10108 10107 10105 10104 10103 10102 10101 10102 10102 10102 10101 10100 10099 10098 10097 10096 10095 10093 10090 10086 10082 10080 10078 10074 10071 10067 10064 10059 10052 10046 10042 10038 10032 10026 10021 10016 10010 10003 9998 9992 9985 9979 9972 9966 9959 9953 9947
10092 10093 10094 10094 10093 10093 10092 10093 10093 10092 10091 10090 10089 10088 10087 10086 10086 10085 10084 10082 10081 10079 10077 10075 10072 10069 10065 10062 10060 10057 10054 10050 10046 10042 10038 10033 10025 10020 10018 10013 10007 10001 9996 9990 9984 9978 9972 9965 9959 9953 9948 9941 9936 9930
10081 10080 10079 10079 10080 10080 10080 10080 10079 10078 10077 10076 10074 10074 10072 10071 10069 10068 10066 10064 10063 10060 10057 10055 10053 10051 10047 10043 10041 10039 10034 10030 10026 10022 10018 10014 10010 10003 9997 9991 9987 9982 9975 9970 9965 9959 9954 9948 9942 9937 9931 9924 9918 9912
10068 10068 10068 10068 10068 10066 10066 10065 10064 10064 10063 10061 10060 10059 10057 10056 10054 10052 10049 10048 10046 10043 10041 10040 10037 10035 10032 10028 10023 10019 10017 10014 10009 10005 10000 9996 9990 9985 9980 9974 9969 9963 9957 9951 9946 9941 9935 9930 9924 9919 9914 9908 9902 9897
10058 10058 10057 10056 10056 10054 10052 10051 10051 10050 10048 10049 10048 10045 10043 10042 10041 10038 10036 10035 10034 10030 10027 10024 10022 10019 10016 10012 10008 10004 9999 9996 9992 9987 9983 9978 9974 9969 9963 9958 9953 9947 9941 9935 9930 9925 9919 9913 9908 9903 9897 9892 9887 9882
10048 10048 10047 10046 10045 10044 10042 10040 10039 10038 10038 10036 10034 10033 10030 10028 10026 10025 10023 10021 10018 10016 10013 10010 10006 10004 10000 9997 9993 9989 9985 9981 9976 9971 9966 9961 9957 9953 9948 9943 9937 9932 9926 9920 9915 9909 9903 9898 9893 9888 9883 9877 9873 9868